Regional Weather Roundup
Issued by NWS

Home | Current Version | Previous Version | Graphics & Text | Print | Product List | Glossary On
Versions: 1 2 3 4 5 6 7 8 9 10 11 12 13 14 15 16 17 18 19 20 21 22 23 24 25 26 27 28 29 30 31 32 33 34 35 36 37 38 39 40 41 42 43 44 45 46 47 48 49 50
000
ASUS45 KSLC 241410
RWRUT

UTAH REGIONAL WEATHER ROUNDUP
NATIONAL WEATHER SERVICE SALT LAKE CITY UT
800 AM MDT SUN MAY 24 2015

UTZ001>011-023>025-241500-

NORTHERN UTAH

CITY           SKY/WX    TMP DP  RH WIND       PRES   REMARKS
BRIGHAM CITY   PTSUNNY   47  44  87 CALM      29.97R
HILL AFB       PTSUNNY   50  43  76 E10       29.96S
LOGAN          CLOUDY    49  43  80 CALM      29.97R
OGDEN          PTSUNNY   51  43  74 E3        29.95S
PROVO AIRPORT  NOT AVBL
SALT LAKE CITY PTSUNNY   51  44  77 SE7       29.95F
VERNAL         CLOUDY    47  38  71 CALM      29.95S
WENDOVER       CLOUDY    54  48  82 CALM      29.97S
HEBER CITY     CLOUDY    41  37  87 CALM      29.99S
WEST JORDAN    PTSUNNY   52  45  76 SE5       29.97S

$$

UTZ012>022-026-027-241500-

SOUTHERN/CENTRAL UTAH

CITY           SKY/WX    TMP DP  RH WIND       PRES   REMARKS
BLANDING       CLOUDY    44  43  96 SE5       30.06F
BRYCE CANYON   PTSUNNY   42  38  85 NE6       30.03S
CEDAR CITY     CLOUDY    49  43  80 CALM      29.98R
DELTA          MOSUNNY   47  42  82 CALM      29.98S
HANKSVILLE     SUNNY     46  45  93 CALM      29.98S
MILFORD        PTSUNNY   50  46  86 E3        29.98R
MOAB/CYNLANDS  SUNNY     51  44  77 SE3       29.94S
PRICE          MOSUNNY   45  37  73 CALM      29.97S
ST GEORGE      CLOUDY    55  52  88 CALM      29.95S
KANAB          PTSUNNY   48  48 100 CALM      30.02S

$$

REGIONAL REPORTS     COLORADO/ARIZONA

CITY           SKY/WX    TMP DP  RH WIND       PRES   REMARKS
CRAIG, CO      LGT RAIN  44  38  79 CALM      29.96S
GRAND JUNCTION PTSUNNY   49  42  77 SE7       29.96S
RIFLE          CLOUDY    46  41  82 CALM      29.97F
MONTROSE       PTSUNNY   44  39  82 VRB5      29.99F
CORTEZ         CLOUDY    44  41  89 NE5       30.00S
PAGE, AZ       CLOUDY    53  49  86 SE3       29.96S
GRAND CANYON   CLOUDY    43  37  79 SW5       30.05R
KINGMAN        CLOUDY    58  39  49 SE5       29.96R
FLAGSTAFF      CLOUDY    43  36  76 W3        30.06R

$$

REGIONAL REPORTS    NEVADA/IDAHO/WYOMING

CITY           SKY/WX    TMP DP  RH WIND       PRES   REMARKS
LAS VEGAS, NV  PTSUNNY   67  46  47 S8        29.86R
ELY            CLOUDY    45  43  93 MISG      30.03S
ELKO           PTSUNNY   49  46  90 SW5       30.02S
POCATELLO, ID  FOG       48  48 100 W5        29.99S VSB 1/2
BURLEY         CLOUDY    49  47  93 W5        29.98R
EVANSTON, WY   PTSUNNY   39  38  96 SW6       30.00S WCI  35
ROCK SPRINGS   RAIN      36  34  92 E5        29.98S FOG     WCI  32
KEMMERER       MOSUNNY   39  37  93 CALM      30.00S

$$


USA.gov is the U.S. government's official web portal to all federal, state and local government web resources and services.